| time (UTC) | temp F | wind direction | speed MPH | gust MPH | rain 1hr in | rain 24hr in | rain mn in | humidity % | barometer mb |
| 20260904144946 | 72 | 18 | 2.0 | 8.0 | 0.00 | 0.03 | 0.00 | 84 | 1016.6 |
| 20260904144503 | 71 | 6 | 1.0 | 5.0 | 0.00 | 0.03 | 0.00 | 84 | 1013.6 |
| 20260904144046 | 71 | 350 | 1.0 | 4.0 | 0.00 | 0.03 | 0.00 | 83 | 1016.8 |
| 20260904143102 | 70 | 329 | 1.0 | 10.0 | 0.00 | 0.03 | 0.00 | 85 | 1013.5 |
| 20260904141503 | 69 | 324 | 1.0 | 5.0 | 0.00 | 0.03 | 0.00 | 88 | 1013.5 |
| 20260904141346 | 70 | 347 | 1.0 | 6.0 | 0.00 | 0.03 | 0.00 | 89 | 1016.8 |
| 20260904140446 | 69 | 2 | 2.0 | 9.0 | 0.00 | 0.03 | 0.00 | 88 | 1016.9 |
| 20260904140106 | 69 | 345 | 3.0 | 8.0 | 0.00 | 0.03 | 0.00 | 87 | 1014.0 |
| 20260904134646 | 69 | 6 | 4.0 | 9.0 | 0.00 | 0.03 | 0.00 | 88 | 1017.0 |
| 20260904134502 | 69 | 52 | 3.0 | 9.0 | 0.00 | 0.03 | 0.00 | 89 | 1013.9 |
| 20260904133746 | 69 | 2 | 2.0 | 8.0 | 0.00 | 0.03 | 0.00 | 90 | 1017.1 |
| 20260904133103 | 68 | 336 | 2.0 | 6.0 | 0.00 | 0.03 | 0.00 | 90 | 1013.8 |
| 20260904132846 | 69 | 351 | 2.0 | 6.0 | 0.00 | 0.03 | 0.00 | 90 | 1017.0 |
| 20260904131946 | 68 | 357 | 3.0 | 6.0 | 0.00 | 0.03 | 0.00 | 91 | 1016.7 |
| 20260904131502 | 68 | 351 | 2.0 | 5.0 | 0.00 | 0.03 | 0.00 | 91 | 1013.6 |
| 20260904131046 | 68 | 359 | 2.0 | 6.0 | 0.00 | 0.03 | 0.00 | 92 | 1016.7 |
| 20260904130146 | 68 | 5 | 1.0 | 7.0 | 0.00 | 0.03 | 0.00 | 92 | 1016.8 |
| 20260904130104 | 67 | 336 | 2.0 | 6.0 | 0.00 | 0.03 | 0.00 | 92 | 1013.7 |
| 20260904124503 | 67 | 317 | 2.0 | 7.0 | 0.00 | 0.03 | 0.00 | 93 | 1013.7 |
| 20260904124346 | 67 | 29 | 2.0 | 4.0 | 0.00 | 0.03 | 0.00 | 93 | 1016.8 |
| 20260904123109 | 66 | 51 | 1.0 | 6.0 | 0.00 | 0.03 | 0.00 | 94 | 1013.9 |
| 20260904121503 | 65 | 22 | 1.0 | 3.0 | 0.00 | 0.03 | 0.00 | 95 | 1013.8 |
| 20260904120746 | 66 | 49 | 1.0 | 5.0 | 0.00 | 0.03 | 0.00 | 96 | 1017.1 |
| 20260904120107 | 65 | 163 | 0.0 | 3.0 | 0.00 | 0.03 | 0.00 | 96 | 1013.8 |
| 20260904115846 | 65 | 104 | 0.0 | 3.0 | 0.00 | 0.03 | 0.00 | 96 | 1016.8 |
| 20260904114946 | 65 | 46 | 0.0 | 2.0 | 0.00 | 0.03 | 0.00 | 96 | 1016.8 |
| 20260904114502 | 65 | 311 | 0.0 | 1.0 | 0.00 | 0.03 | 0.00 | 96 | 1013.7 |
| 20260904114046 | 65 | 34 | 0.0 | 3.0 | 0.00 | 0.03 | 0.00 | 96 | 1016.8 |
| 20260904113105 | 65 | 360 | 0.0 | 2.0 | 0.00 | 0.03 | 0.00 | 96 | 1013.8 |
| 20260904112246 | 65 | 16 | 1.0 | 4.0 | 0.00 | 0.03 | 0.00 | 96 | 1016.9 |
| 20260904111346 | 65 | 44 | 1.0 | 3.0 | 0.00 | 0.03 | 0.00 | 97 | 1016.8 |
| 20260904110446 | 65 | 35 | 0.0 | 3.0 | 0.00 | 0.03 | 0.00 | 97 | 1016.9 |
| 20260904110106 | 64 | 34 | 0.0 | 3.0 | 0.00 | 0.03 | 0.00 | 97 | 1013.8 |
| 20260904104646 | 64 | 6 | 1.0 | 2.0 | 0.00 | 0.03 | 0.00 | 97 | 1016.6 |
| 20260904104503 | 64 | 8 | 0.0 | 2.0 | 0.00 | 0.03 | 0.00 | 97 | 1013.6 |
| 20260904103746 | 65 | 11 | 1.0 | 4.0 | 0.00 | 0.03 | 0.00 | 96 | 1016.6 |
| 20260904103107 | 64 | 79 | 1.0 | 4.0 | 0.00 | 0.03 | 0.00 | 96 | 1013.5 |
| 20260904102846 | 65 | 59 | 1.0 | 5.0 | 0.00 | 0.03 | 0.00 | 96 | 1016.5 |
| 20260904101946 | 65 | 104 | 0.0 | 3.0 | 0.00 | 0.03 | 0.00 | 96 | 1016.6 |
| 20260904101507 | 64 | 145 | 0.0 | 2.0 | 0.00 | 0.03 | 0.00 | 96 | 1013.6 |
| 20260904101046 | 65 | 43 | 1.0 | 2.0 | 0.00 | 0.03 | 0.00 | 96 | 1016.7 |
| 20260904100146 | 65 | 22 | 1.0 | 4.0 | 0.00 | 0.03 | 0.00 | 96 | 1016.6 |
| 20260904100104 | 65 | 6 | 1.0 | 4.0 | 0.00 | 0.03 | 0.00 | 96 | 1013.5 |
| 20260904095246 | 65 | 36 | 0.0 | 4.0 | 0.00 | 0.03 | 0.00 | 95 | 1016.5 |
| 20260904094503 | 65 | 228 | 0.0 | 4.0 | 0.00 | 0.03 | 0.00 | 95 | 1013.4 |
| 20260904094346 | 66 | 74 | 1.0 | 5.0 | 0.00 | 0.03 | 0.00 | 95 | 1016.5 |
| 20260904093103 | 65 | 53 | 2.0 | 11.0 | 0.00 | 0.03 | 0.00 | 94 | 1013.4 |
| 20260904091503 | 66 | 298 | 2.0 | 5.0 | 0.00 | 0.03 | 0.00 | 94 | 1013.6 |
| 20260904090746 | 66 | 10 | 2.0 | 6.0 | 0.00 | 0.03 | 0.00 | 94 | 1016.6 |
| 20260904085846 | 66 | 353 | 2.0 | 7.0 | 0.00 | 0.03 | 0.00 | 94 | 1016.4 |
| 20260904084946 | 66 | 5 | 3.0 | 7.0 | 0.00 | 0.05 | 0.00 | 94 | 1016.4 |
| 20260904084504 | 66 | 55 | 2.0 | 6.0 | 0.00 | 0.08 | 0.00 | 95 | 1013.3 |
| 20260904084046 | 66 | 17 | 2.0 | 7.0 | 0.00 | 0.06 | 0.00 | 95 | 1016.3 |
| 20260904083146 | 66 | 10 | 2.0 | 6.0 | 0.00 | 0.07 | 0.00 | 95 | 1016.2 |
| 20260904083102 | 66 | 323 | 2.0 | 5.0 | 0.00 | 0.08 | 0.00 | 95 | 1013.2 |
| 20260904082246 | 66 | 350 | 2.0 | 8.0 | 0.00 | 0.07 | 0.00 | 95 | 1016.2 |
| 20260904081505 | 66 | 15 | 1.0 | 4.0 | 0.00 | 0.08 | 0.00 | 95 | 1013.0 |
| 20260904080105 | 66 | 356 | 4.0 | 8.0 | 0.00 | 0.08 | 0.00 | 95 | 1013.0 |
| 20260904075546 | 66 | 6 | 2.0 | 7.0 | 0.00 | 0.08 | 0.00 | 96 | 1016.0 |
| 20260904074646 | 66 | 5 | 2.0 | 7.0 | 0.00 | 0.09 | 0.00 | 96 | 1016.0 |
| 20260904074503 | 66 | 49 | 1.0 | 7.0 | 0.00 | 0.15 | 0.00 | 96 | 1012.9 |
| 20260904073746 | 66 | 5 | 2.0 | 8.0 | 0.00 | 0.10 | 0.00 | 96 | 1015.9 |
| 20260904073102 | 66 | 25 | 2.0 | 6.0 | 0.00 | 0.15 | 0.00 | 97 | 1012.8 |
| 20260904072846 | 66 | 1 | 2.0 | 6.0 | 0.00 | 0.11 | 0.00 | 97 | 1015.9 |
| 20260904071946 | 66 | 13 | 2.0 | 6.0 | 0.00 | 0.12 | 0.00 | 97 | 1016.0 |
| 20260904071510 | 65 | 19 | 2.0 | 6.0 | 0.00 | 0.15 | 0.00 | 97 | 1013.0 |
| 20260904071046 | 66 | 8 | 3.0 | 6.0 | 0.00 | 0.14 | 0.00 | 97 | 1015.9 |
| 20260904070146 | 66 | 22 | 1.0 | 5.0 | 0.00 | 0.15 | 0.00 | 98 | 1016.0 |
| 20260904065246 | 66 | 25 | 1.0 | 3.0 | 0.00 | 0.15 | 0.00 | 98 | 1015.9 |
| 20260904064502 | 65 | 60 | 0.0 | 2.0 | 0.00 | 0.20 | 0.00 | 98 | 1012.6 |
| 20260904063446 | 66 | 24 | 1.0 | 4.0 | 0.00 | 0.15 | 0.00 | 98 | 1015.6 |
| 20260904063113 | 65 | 19 | 1.0 | 3.0 | 0.00 | 0.20 | 0.00 | 98 | 1012.5 |
| 20260904062546 | 66 | 91 | 0.0 | 1.0 | 0.00 | 0.16 | 0.00 | 97 | 1015.5 |
| 20260904061646 | 66 | 119 | 0.0 | 3.0 | 0.00 | 0.18 | 0.00 | 97 | 1015.5 |
| 20260904061503 | 65 | 236 | 0.0 | 3.0 | 0.00 | 0.20 | 0.00 | 97 | 1012.5 |
| 20260904060746 | 66 | 37 | 1.0 | 4.0 | 0.00 | 0.20 | 0.00 | 97 | 1015.4 |
| 20260904060114 | 66 | 46 | 1.0 | 3.0 | 0.00 | 0.20 | 0.00 | 97 | 1012.4 |
| 20260904054946 | 66 | 36 | 1.0 | 4.0 | 0.00 | 0.20 | 0.00 | 97 | 1015.5 |
| 20260904054503 | 66 | 44 | 0.0 | 3.0 | 0.00 | 0.20 | 0.00 | 97 | 1012.5 |
| 20260904054046 | 66 | 33 | 0.0 | 4.0 | 0.00 | 0.20 | 0.00 | 97 | 1015.6 |
| 20260904053104 | 66 | 144 | 0.0 | 2.0 | 0.00 | 0.20 | 0.00 | 97 | 1012.6 |
| 20260904052246 | 66 | 274 | 0.0 | 2.0 | 0.00 | 0.20 | 0.00 | 97 | 1015.8 |
| 20260904051501 | 66 | 94 | 0.0 | 0.0 | 0.00 | 0.20 | 0.00 | 97 | 1012.9 |
| 20260904051346 | 66 | 0 | 0.0 | 0.0 | 0.00 | 0.20 | 0.00 | 97 | 1015.9 |
| 20260904050446 | 66 | 29 | 1.0 | 2.0 | 0.00 | 0.20 | 0.00 | 97 | 1015.9 |
| 20260904050103 | 66 | 51 | 1.0 | 2.0 | 0.00 | 0.20 | 0.00 | 97 | 1012.9 |
| 20260904045546 | 66 | 313 | 0.0 | 2.0 | 0.00 | 0.20 | 0.00 | 97 | 1015.9 |
| 20260904044645 | 66 | 35 | 0.0 | 2.0 | 0.00 | 0.20 | 0.00 | 97 | 1016.0 |
| 20260904044504 | 66 | 25 | 0.0 | 2.0 | 0.00 | 0.67 | 0.00 | 97 | 1012.9 |
| 20260904043746 | 66 | 44 | 0.0 | 2.0 | 0.00 | 0.21 | 0.00 | 97 | 1015.9 |
| 20260904043103 | 66 | 43 | 0.0 | 1.0 | 0.00 | 0.67 | 0.00 | 97 | 1012.8 |
| 20260904042846 | 66 | 62 | 0.0 | 1.0 | 0.00 | 0.23 | 0.00 | 97 | 1015.8 |
| 20260904041946 | 67 | 60 | 0.0 | 2.0 | 0.00 | 0.31 | 0.00 | 97 | 1015.6 |
| 20260904041502 | 66 | 72 | 1.0 | 2.0 | 0.00 | 0.67 | 0.00 | 97 | 1012.6 |
| 20260904041045 | 67 | 58 | 0.0 | 2.0 | 0.00 | 0.62 | 0.00 | 96 | 1015.7 |
| 20260904040145 | 67 | 114 | 0.0 | 3.0 | 0.00 | 0.67 | 0.00 | 96 | 1015.4 |
| 20260904035246 | 67 | 50 | 1.0 | 3.0 | 0.00 | 0.67 | 0.67 | 95 | 1015.5 |
| 20260904034502 | 67 | 36 | 1.0 | 4.0 | 0.00 | 0.71 | 0.67 | 96 | 1012.5 |
| 20260904034345 | 67 | 17 | 2.0 | 5.0 | 0.00 | 0.67 | 0.67 | 96 | 1015.5 |
| 20260904033103 | 67 | 347 | 2.0 | 4.0 | 0.00 | 0.71 | 0.67 | 96 | 1012.8 |
| 20260904032546 | 68 | 64 | 1.0 | 5.0 | 0.00 | 0.70 | 0.67 | 96 | 1015.9 |
| 20260904031645 | 67 | 21 | 1.0 | 5.0 | 0.00 | 0.71 | 0.67 | 96 | 1015.8 |
| 20260904031502 | 67 | 46 | 1.0 | 4.0 | 0.00 | 0.71 | 0.67 | 96 | 1012.8 |
| 20260904030746 | 67 | 45 | 1.0 | 4.0 | 0.00 | 0.71 | 0.67 | 96 | 1015.9 |
| 20260904030103 | 67 | 1 | 1.0 | 4.0 | 0.01 | 0.71 | 0.67 | 96 | 1013.0 |
| 20260904025845 | 67 | 71 | 1.0 | 4.0 | 0.01 | 0.71 | 0.67 | 96 | 1016.1 |
| 20260904024946 | 67 | 52 | 1.0 | 3.0 | 0.01 | 0.71 | 0.67 | 96 | 1016.2 |
| 20260904024501 | 67 | 69 | 0.0 | 3.0 | 0.01 | 0.71 | 0.67 | 96 | 1013.2 |
| 20260904024046 | 67 | 77 | 1.0 | 3.0 | 0.02 | 0.71 | 0.67 | 96 | 1016.0 |
| 20260904023145 | 67 | 138 | 0.0 | 1.0 | 0.02 | 0.71 | 0.67 | 96 | 1015.9 |
| 20260904023108 | 67 | 131 | 0.0 | 1.0 | 0.02 | 0.71 | 0.67 | 96 | 1012.9 |
| 20260904022245 | 68 | 125 | 0.0 | 1.0 | 0.02 | 0.71 | 0.67 | 95 | 1015.7 |
| 20260904021507 | 67 | 97 | 0.0 | 0.0 | 0.03 | 0.71 | 0.67 | 95 | 1012.9 |
| 20260904021345 | 68 | 111 | 0.0 | 2.0 | 0.03 | 0.71 | 0.67 | 95 | 1015.9 |
| 20260904020445 | 68 | 77 | 1.0 | 3.0 | 0.02 | 0.70 | 0.66 | 94 | 1016.1 |
| 20260904020106 | 68 | 94 | 0.0 | 2.0 | 0.02 | 0.70 | 0.66 | 93 | 1013.2 |
| 20260904015546 | 69 | 69 | 1.0 | 3.0 | 0.02 | 0.70 | 0.66 | 92 | 1016.2 |
| 20260904014506 | 69 | 70 | 1.0 | 5.0 | 0.02 | 0.71 | 0.66 | 90 | 1013.2 |
| 20260904013745 | 70 | 61 | 1.0 | 6.0 | 0.01 | 0.70 | 0.65 | 87 | 1016.2 |
| 20260904013103 | 71 | 64 | 1.0 | 6.0 | 0.01 | 0.70 | 0.65 | 86 | 1013.3 |
| 20260904012846 | 71 | 25 | 2.0 | 7.0 | 0.01 | 0.70 | 0.65 | 84 | 1016.4 |
| 20260904011945 | 73 | 6 | 2.0 | 7.0 | 0.00 | 0.69 | 0.64 | 82 | 1016.4 |
| 20260904011506 | 73 | 22 | 2.0 | 6.0 | 0.00 | 0.69 | 0.64 | 81 | 1013.3 |
| 20260904011046 | 74 | 22 | 2.0 | 11.0 | 0.00 | 0.69 | 0.64 | 80 | 1016.5 |
| 20260904010145 | 74 | 24 | 2.0 | 7.0 | 0.00 | 0.69 | 0.64 | 79 | 1016.4 |
| 20260904010104 | 73 | 25 | 2.0 | 6.0 | 0.00 | 0.69 | 0.64 | 80 | 1013.3 |
| 20260904005245 | 74 | 15 | 3.0 | 6.0 | 0.00 | 0.69 | 0.64 | 79 | 1016.3 |
| 20260904004502 | 74 | 79 | 2.0 | 7.0 | 0.00 | 0.73 | 0.64 | 81 | 1013.0 |
| 20260904004345 | 74 | 11 | 2.0 | 7.0 | 0.00 | 0.69 | 0.64 | 81 | 1016.2 |
| 20260904003445 | 74 | 29 | 1.0 | 6.0 | 0.00 | 0.69 | 0.64 | 84 | 1016.2 |
| 20260904003102 | 74 | 58 | 0.0 | 6.0 | 0.00 | 0.73 | 0.64 | 84 | 1012.8 |
| 20260904002545 | 74 | 33 | 1.0 | 6.0 | 0.00 | 0.73 | 0.64 | 84 | 1016.1 |
| 20260904001646 | 74 | 39 | 1.0 | 5.0 | 0.00 | 0.73 | 0.64 | 85 | 1016.1 |
| 20260904001502 | 74 | 318 | 1.0 | 4.0 | 0.00 | 0.73 | 0.64 | 86 | 1012.8 |
| 20260904000745 | 75 | 25 | 2.0 | 6.0 | 0.00 | 0.73 | 0.64 | 85 | 1016.2 |
| 20260904000136 | 74 | 201 | 3.0 | 6.0 | 0.00 | 0.73 | 0.64 | 86 | 1013.0 |
| 20260903234945 | 74 | 18 | 1.0 | 4.0 | 0.00 | 0.73 | 0.64 | 88 | 1016.0 |
| 20260903234503 | 74 | 56 | 0.0 | 3.0 | 0.00 | 0.73 | 0.64 | 88 | 1012.7 |
| 20260903234045 | 75 | 55 | 1.0 | 2.0 | 0.00 | 0.73 | 0.64 | 88 | 1015.9 |
| 20260903233145 | 75 | 19 | 1.0 | 3.0 | 0.00 | 0.73 | 0.64 | 87 | 1016.0 |
| 20260903233103 | 74 | 29 | 0.0 | 3.0 | 0.00 | 0.73 | 0.64 | 87 | 1012.8 |
| 20260903232245 | 75 | 40 | 1.0 | 3.0 | 0.00 | 0.73 | 0.64 | 87 | 1016.2 |
| 20260903231502 | 75 | 350 | 1.0 | 4.0 | 0.00 | 0.73 | 0.64 | 86 | 1013.0 |
| 20260903231345 | 76 | 36 | 2.0 | 5.0 | 0.00 | 0.73 | 0.64 | 86 | 1016.1 |
| 20260903230445 | 76 | 42 | 1.0 | 5.0 | 0.00 | 0.73 | 0.64 | 85 | 1016.4 |
| 20260903230113 | 75 | 54 | 0.0 | 2.0 | 0.00 | 0.73 | 0.64 | 85 | 1013.1 |
| 20260903225545 | 76 | 14 | 0.0 | 3.0 | 0.00 | 0.73 | 0.64 | 85 | 1016.3 |
| 20260903224645 | 76 | 13 | 1.0 | 2.0 | 0.00 | 0.73 | 0.64 | 84 | 1016.5 |
| 20260903224506 | 75 | 33 | 0.0 | 2.0 | 0.00 | 0.73 | 0.64 | 84 | 1013.4 |
| 20260903223101 | 76 | 109 | 0.0 | 3.0 | 0.00 | 0.73 | 0.64 | 82 | 1013.2 |
| 20260903222845 | 77 | 12 | 0.0 | 3.0 | 0.00 | 0.73 | 0.64 | 82 | 1016.3 |
| 20260903221945 | 77 | 19 | 0.0 | 2.0 | 0.00 | 0.73 | 0.64 | 81 | 1016.4 |
| 20260903221503 | 77 | 4 | 0.0 | 2.0 | 0.00 | 0.73 | 0.64 | 81 | 1012.8 |
| 20260903221045 | 78 | 19 | 1.0 | 4.0 | 0.00 | 0.73 | 0.64 | 80 | 1015.9 |
| 20260903220145 | 78 | 46 | 0.0 | 3.0 | 0.00 | 0.73 | 0.64 | 81 | 1015.9 |
| 20260903220120 | 77 | 44 | 0.0 | 1.0 | 0.00 | 0.73 | 0.64 | 82 | 1012.6 |
| 20260903215245 | 78 | 38 | 0.0 | 1.0 | 0.00 | 0.73 | 0.64 | 81 | 1015.7 |
| 20260903214502 | 78 | 37 | 0.0 | 1.0 | 0.00 | 0.73 | 0.64 | 80 | 1012.3 |
| 20260903214345 | 78 | 46 | 0.0 | 2.0 | 0.00 | 0.73 | 0.64 | 79 | 1015.6 |
| 20260903213445 | 79 | 51 | 0.0 | 3.0 | 0.00 | 0.73 | 0.64 | 78 | 1015.5 |
| 20260903213105 | 78 | 111 | 0.0 | 3.0 | 0.00 | 0.73 | 0.64 | 78 | 1012.3 |
| 20260903212545 | 79 | 14 | 2.0 | 5.0 | 0.00 | 0.73 | 0.64 | 77 | 1015.4 |
| 20260903211645 | 79 | 23 | 2.0 | 6.0 | 0.00 | 0.73 | 0.64 | 75 | 1015.4 |
| 20260903211504 | 79 | 325 | 2.0 | 6.0 | 0.00 | 0.73 | 0.64 | 76 | 1012.1 |
| 20260903210108 | 80 | 22 | 1.0 | 5.0 | 0.00 | 0.73 | 0.64 | 74 | 1012.4 |
| 20260903204945 | 81 | 32 | 2.0 | 5.0 | 0.00 | 0.73 | 0.64 | 74 | 1015.5 |
| 20260903204504 | 81 | 22 | 1.0 | 6.0 | 0.00 | 0.74 | 0.64 | 73 | 1012.2 |
| 20260903204045 | 81 | 24 | 1.0 | 4.0 | 0.00 | 0.73 | 0.64 | 74 | 1015.2 |
| 20260903203145 | 81 | 45 | 2.0 | 6.0 | 0.00 | 0.73 | 0.64 | 74 | 1015.4 |
| 20260903203103 | 80 | 359 | 1.0 | 5.0 | 0.00 | 0.74 | 0.64 | 74 | 1012.1 |
| 20260903202245 | 80 | 64 | 1.0 | 8.0 | 0.00 | 0.73 | 0.64 | 76 | 1015.5 |
| 20260903201505 | 80 | 84 | 1.0 | 6.0 | 0.00 | 0.74 | 0.64 | 74 | 1012.3 |
| 20260903200445 | 80 | 27 | 1.0 | 6.0 | 0.00 | 0.74 | 0.64 | 76 | 1015.7 |
| 20260903195545 | 80 | 34 | 2.0 | 6.0 | 0.00 | 0.74 | 0.64 | 74 | 1015.9 |
| 20260903194646 | 81 | 63 | 1.0 | 6.0 | 0.00 | 0.74 | 0.64 | 74 | 1016.0 |
| 20260903194503 | 80 | 30 | 2.0 | 5.0 | 0.00 | 0.74 | 0.64 | 73 | 1012.8 |
| 20260903193102 | 80 | 68 | 2.0 | 7.0 | 0.00 | 0.74 | 0.64 | 72 | 1012.7 |
| 20260903192845 | 81 | 67 | 2.0 | 8.0 | 0.00 | 0.74 | 0.64 | 73 | 1016.0 |
| 20260903191945 | 81 | 34 | 2.0 | 6.0 | 0.00 | 0.74 | 0.64 | 72 | 1016.1 |
| 20260903191505 | 80 | 195 | 1.0 | 7.0 | 0.00 | 0.74 | 0.64 | 72 | 1012.9 |
| 20260903191045 | 81 | 75 | 2.0 | 6.0 | 0.00 | 0.74 | 0.64 | 72 | 1016.3 |
| 20260903190145 | 82 | 119 | 2.0 | 6.0 | 0.00 | 0.74 | 0.64 | 71 | 1016.3 |
| 20260903184503 | 81 | 40 | 0.0 | 5.0 | 0.00 | 0.74 | 0.64 | 71 | 1013.1 |
| 20260903184345 | 82 | 71 | 1.0 | 5.0 | 0.00 | 0.74 | 0.64 | 71 | 1016.2 |
| 20260903183445 | 82 | 51 | 1.0 | 6.0 | 0.00 | 0.74 | 0.64 | 74 | 1016.4 |
| 20260903183103 | 81 | 44 | 1.0 | 5.0 | 0.00 | 0.74 | 0.64 | 71 | 1013.1 |
| 20260903182545 | 81 | 68 | 2.0 | 6.0 | 0.00 | 0.74 | 0.64 | 72 | 1016.3 |
| 20260903181645 | 81 | 53 | 2.0 | 12.0 | 0.00 | 0.74 | 0.64 | 73 | 1016.4 |
| 20260903181503 | 81 | 54 | 1.0 | 12.0 | 0.00 | 0.74 | 0.64 | 73 | 1013.2 |
| 20260903180745 | 81 | 64 | 2.0 | 6.0 | 0.00 | 0.74 | 0.64 | 73 | 1016.4 |
| 20260903180110 | 80 | 78 | 2.0 | 6.0 | 0.00 | 0.74 | 0.64 | 73 | 1013.4 |
| 20260903175846 | 80 | 34 | 2.0 | 7.0 | 0.00 | 0.74 | 0.64 | 74 | 1016.5 |
| 20260903174945 | 79 | 54 | 2.0 | 7.0 | 0.00 | 0.74 | 0.64 | 76 | 1016.6 |
| 20260903174506 | 79 | 113 | 2.0 | 9.0 | 0.00 | 0.87 | 0.64 | 78 | 1013.5 |
| 20260903174045 | 79 | 43 | 2.0 | 10.0 | 0.00 | 0.78 | 0.64 | 76 | 1016.7 |
| 20260903173120 | 78 | 64 | 2.0 | 8.0 | 0.00 | 0.87 | 0.64 | 76 | 1013.7 |
| 20260903171502 | 78 | 37 | 1.0 | 4.0 | 0.00 | 0.87 | 0.64 | 79 | 1013.8 |
| 20260903171345 | 78 | 79 | 1.0 | 7.0 | 0.00 | 0.87 | 0.64 | 79 | 1017.0 |
| 20260903170446 | 78 | 89 | 1.0 | 7.0 | 0.00 | 0.87 | 0.64 | 78 | 1016.7 |
| 20260903170112 | 77 | 106 | 0.0 | 4.0 | 0.00 | 0.87 | 0.64 | 81 | 1013.7 |
| 20260903164645 | 78 | 99 | 1.0 | 4.0 | 0.00 | 0.87 | 0.64 | 83 | 1016.9 |
| 20260903164503 | 77 | 77 | 1.0 | 4.0 | 0.00 | 0.88 | 0.64 | 81 | 1013.8 |
| 20260903163745 | 77 | 84 | 1.0 | 4.0 | 0.00 | 0.87 | 0.64 | 82 | 1016.8 |
| 20260903163110 | 77 | 91 | 1.0 | 3.0 | 0.00 | 0.88 | 0.64 | 83 | 1014.0 |
| 20260903162845 | 77 | 352 | 1.0 | 5.0 | 0.00 | 0.87 | 0.64 | 82 | 1017.0 |
| 20260903161945 | 76 | 91 | 1.0 | 6.0 | 0.00 | 0.88 | 0.64 | 84 | 1017.2 |
| 20260903161507 | 76 | 39 | 0.0 | 5.0 | 0.00 | 0.88 | 0.64 | 85 | 1014.3 |
| 20260903161045 | 76 | 104 | 2.0 | 5.0 | 0.00 | 0.88 | 0.64 | 83 | 1017.3 |
| 20260903160145 | 76 | 10 | 2.0 | 10.0 | 0.00 | 0.88 | 0.64 | 85 | 1017.3 |
| 20260903160104 | 75 | 5 | 4.0 | 10.0 | 0.00 | 0.88 | 0.64 | 84 | 1014.4 |
| 20260903155245 | 75 | 68 | 1.0 | 7.0 | 0.00 | 0.88 | 0.64 | 86 | 1017.3 |
| 20260903154503 | 74 | 125 | 1.0 | 7.0 | 0.00 | 0.88 | 0.64 | 86 | 1014.5 |
| 20260903154345 | 74 | 15 | 2.0 | 7.0 | 0.00 | 0.88 | 0.64 | 87 | 1017.4 |
| 20260903153445 | 74 | 51 | 1.0 | 4.0 | 0.00 | 0.88 | 0.64 | 88 | 1017.6 |
| 20260903153102 | 73 | 224 | 1.0 | 6.0 | 0.00 | 0.88 | 0.64 | 89 | 1014.7 |
| 20260903152545 | 73 | 34 | 2.0 | 6.0 | 0.00 | 0.88 | 0.64 | 89 | 1017.7 |
| 20260903151645 | 72 | 44 | 2.0 | 6.0 | 0.00 | 0.88 | 0.64 | 91 | 1017.6 |
| 20260903151504 | 71 | 78 | 1.0 | 3.0 | 0.00 | 0.88 | 0.64 | 92 | 1014.8 |
| 20260903150745 | 71 | 49 | 2.0 | 6.0 | 0.00 | 0.88 | 0.64 | 93 | 1017.9 |
| 20260903150114 | 70 | 211 | 1.0 | 5.0 | 0.00 | 0.88 | 0.64 | 95 | 1014.9 |
| 20260903145845 | 70 | 63 | 1.0 | 5.0 | 0.00 | 0.88 | 0.64 | 95 | 1017.9 |